Hourly Data Report for July 05, 2012

HALIFAX STANFIELD INT'L A
NOVA SCOTIA

44°52'48.060" N
63°30'00.050" W
145.40 m
8202250
71395
YHZ

Download Data

Hourly Data (July 2012)
Hourly Data Report for July 5, 2012
TIME
LST
Temp Definition
°C
Dew Point Definition
°C
Rel Hum Definition
%
Precip. Amount Definition
mm

Wind Dir Definition
10's deg

Wind Spd Definition
km/h
Visibility Definition
km
Stn Press Definition
kPa
Hmdx Definition


Wind Chill Definition


Weather Definition


00:00 16.6 15.4 93   15 17 19.3 99.26     Mostly Cloudy
01:00 16.7 15.5 93   15 13 19.3 99.24     Mostly Cloudy
02:00 16.7 15.8 94   15 17 19.3 99.19     Mostly Cloudy
03:00 16.9 16.0 94   15 13 19.3 99.11     Mostly Cloudy
04:00 17.0 16.1 94   13 13 19.3 99.06     Mostly Cloudy
05:00 16.8 16.8 100   13 19 3.2 99.05     Rain Showers, Fog
06:00 17.2 17.2 100   16 15 1.0 99.06     Rain Showers, Fog
07:00 17.6 17.6 100   15 19 4.8 99.05     Rain Showers, Fog
08:00 18.0 17.9 99   15 15 4.8 99.07     Drizzle, Fog
09:00 18.0 17.8 99   13 19 3.2 99.04     Rain Showers, Fog
10:00 17.5 17.5 100   13 19 2.0 99.04     Rain Showers, Fog
11:00 17.8 17.8 100   13 19 4.8 99.01     Rain Showers, Fog
12:00 17.9 17.8 99   11 15 3.2 98.95     Drizzle, Fog
13:00 17.7 17.7 100   11 11 2.0 98.93     Drizzle, Fog
14:00 18.4 18.3 99   10 13 4.8 98.92     Drizzle, Fog
15:00 17.8 17.8 100   15 9 0.4 98.95     Drizzle, Fog
16:00 18.3 18.3 100   13 11 0.8 98.96     Fog
17:00 17.9 17.9 100   12 15 0.4 98.99     Drizzle, Fog
18:00 17.1 17.1 100   13 19 0.8 99.02     Drizzle, Fog
19:00 16.9 16.9 100   13 19 1.6 99.04     Drizzle, Fog
20:00 16.6 16.6 100   13 11 2.0 99.06     Drizzle, Fog
21:00 16.6 16.6 100   13 7 0.8 99.08     Fog
22:00 16.7 16.7 100   9 11 0.8 99.13     Fog
23:00 16.6 16.6 100   10 17 1.2 99.12     Drizzle, Fog

Notes on Data Quality.

Legend

  • E = Estimated
  • M = Missing
  • NA = Not Available*
  • [empty] = Indicates an unobserved value
Date modified: